Погода в Тэджоне

Южная Корея     36°21′59″N   127°22′24″E
темп.,
°C
ветер,
м/с
пор.,
м/с
влажн.,
%
обл.,
%
осадки,
мм/ч
давл.,
гПа
погр.,
м
25 февраля, чт
чт2500:00+2в1147100 0.0 102622
03:00+1в1154100 0.0 102422
06:00+1в1261100 0.0 102522
09:00+4в1158100 0.0 1025116
12:00+8в1162100 0.1 1025315
15:00+8сз0166100 0.2 1023609
18:00+6вюв2481100 0.3 1023173
21:00+5ссв2382100 0.4 102381
26 февраля, пт
пт2600:00+5св3882100 0.0 1023372
03:00+5св41180100 0.0 1021534
06:00+5всв61379100 0.0 1022568
09:00+6всв61365100 0.0 1023773
12:00+11всв7114695 0.0 10221237
15:00+12всв6104098 0.0 10211510
18:00+8в41058100 0.0 1023946
21:00+6в51266100 0.0 1026599
27 февраля, сб
сб2700:00+5в51269100 0.0 1027531
03:00+4в7156950 0.0 1028602
06:00+4в615720 0.0 1029640
09:00+5в715630 0.0 1031684
12:00+10в711500 0.0 1031886
15:00+11в711470 0.0 1029894
18:00+7в6105839 0.0 1029592
21:00+4всв497166 0.0 1031363
28 февраля, вс
вс2800:00+3всв377783 0.0 1032265
03:00+1всв348489 0.0 1030135
06:000всв22910 0.0 102936
09:00+3всв23740 0.0 1029242
12:00+11ссз22424 0.0 1028615
15:00+13ссв223452 0.0 1026724
18:00+10сз1145100 0.0 102622
21:00+10всв1147100 0.0 102622
1 марта, пн
пн100:00+8всв1172100 0.4 102531
03:00+8всв2288100 1.9 102397
06:00+8всв1287100 0.1 102351
09:00+8в2387100 0.8 1022149
12:00+15юв2665100 0.0 1019951
15:00+12ссв1187100 0.6 101532
18:00+11в2298100 4.9 101394
21:00+11вюв2496100 10.3 1012163